Year,Month,Day,Hour,Minute,Value (Times are PST for temperature in C)
2015,06,27,01,16,14.20
2015,06,27,01,17,14.20
2015,06,27,01,18,14.20
2015,06,27,01,19,14.20
2015,06,27,01,20,14.20
2015,06,27,01,21,14.20
2015,06,27,01,22,14.20
2015,06,27,01,23,14.20
2015,06,27,01,24,14.20
2015,06,27,01,25,14.20
2015,06,27,01,26,14.20
2015,06,27,01,27,14.20
2015,06,27,01,28,14.20
2015,06,27,01,29,14.20
2015,06,27,01,30,14.20
2015,06,27,01,31,14.20
2015,06,27,01,32,14.20
2015,06,27,01,33,14.20
2015,06,27,01,34,14.20
2015,06,27,01,35,14.20
2015,06,27,01,36,14.20
2015,06,27,01,37,14.20
2015,06,27,01,38,14.20
2015,06,27,01,39,14.20
2015,06,27,01,40,14.20
2015,06,27,01,41,14.20
2015,06,27,01,42,14.20
2015,06,27,01,43,14.20
2015,06,27,01,44,14.20
2015,06,27,01,45,14.20
2015,06,27,01,46,13.60
2015,06,27,01,47,13.60
2015,06,27,01,48,13.60
2015,06,27,01,49,13.60
2015,06,27,01,50,13.60
2015,06,27,01,51,13.60
2015,06,27,01,52,13.60
2015,06,27,01,53,13.60
2015,06,27,01,54,13.60
2015,06,27,01,55,13.60
2015,06,27,01,56,13.60
2015,06,27,01,57,13.60
2015,06,27,01,58,13.60
2015,06,27,01,59,13.60
2015,06,27,02,00,13.60
2015,06,27,02,01,13.60
2015,06,27,02,02,13.60
2015,06,27,02,03,13.60
2015,06,27,02,04,13.60
2015,06,27,02,05,13.60
2015,06,27,02,06,13.60
2015,06,27,02,07,13.60
2015,06,27,02,08,13.60
2015,06,27,02,09,13.60
2015,06,27,02,10,13.60
2015,06,27,02,11,13.60
2015,06,27,02,12,13.60
2015,06,27,02,13,13.60
2015,06,27,02,14,13.60
2015,06,27,02,15,13.60
2015,06,27,02,16,13.10
2015,06,27,02,17,13.10
2015,06,27,02,18,13.10
2015,06,27,02,19,13.10
2015,06,27,02,20,13.10
2015,06,27,02,21,13.10
2015,06,27,02,22,13.10
2015,06,27,02,23,13.10
2015,06,27,02,24,13.10
2015,06,27,02,25,13.10
2015,06,27,02,26,13.10
2015,06,27,02,27,13.10
2015,06,27,02,28,13.10
2015,06,27,02,29,13.10
2015,06,27,02,30,13.10
2015,06,27,02,31,13.10
2015,06,27,02,32,13.10
2015,06,27,02,33,13.10
2015,06,27,02,34,13.10
2015,06,27,02,35,13.10
2015,06,27,02,36,13.10
2015,06,27,02,37,13.10
2015,06,27,02,38,13.10
2015,06,27,02,39,13.10
2015,06,27,02,40,13.10
2015,06,27,02,41,13.10
2015,06,27,02,42,13.10
2015,06,27,02,43,13.10
2015,06,27,02,44,13.10
2015,06,27,02,45,13.10
2015,06,27,02,46,12.50
2015,06,27,02,47,12.50
2015,06,27,02,48,12.50
2015,06,27,02,49,12.50
2015,06,27,02,50,12.50
2015,06,27,02,51,12.50
2015,06,27,02,52,12.50
2015,06,27,02,53,12.50
2015,06,27,02,54,12.50
2015,06,27,02,55,12.50
2015,06,27,02,56,12.50
2015,06,27,02,57,12.50
2015,06,27,02,58,12.50
2015,06,27,02,59,12.50
2015,06,27,03,00,12.50
2015,06,27,03,01,12.50
2015,06,27,03,02,12.50
2015,06,27,03,03,12.50
2015,06,27,03,04,12.50
2015,06,27,03,05,12.50
2015,06,27,03,06,12.50
2015,06,27,03,07,12.50
2015,06,27,03,08,12.50
2015,06,27,03,09,12.50
2015,06,27,03,10,12.50
2015,06,27,03,11,12.50
2015,06,27,03,12,12.50
2015,06,27,03,13,12.50
2015,06,27,03,14,12.50
2015,06,27,03,15,12.50
2015,06,27,03,16,12.30
2015,06,27,03,17,12.30
2015,06,27,03,18,12.30
2015,06,27,03,19,12.30
2015,06,27,03,20,12.30
2015,06,27,03,21,12.30
2015,06,27,03,22,12.30
2015,06,27,03,23,12.30
2015,06,27,03,24,12.30
2015,06,27,03,25,12.30
2015,06,27,03,26,12.30
2015,06,27,03,27,12.30
2015,06,27,03,28,12.30
2015,06,27,03,29,12.30
2015,06,27,03,30,12.30
2015,06,27,03,31,12.30
2015,06,27,03,32,12.30
2015,06,27,03,33,12.30
2015,06,27,03,34,12.30
2015,06,27,03,35,12.30
2015,06,27,03,36,12.30
2015,06,27,03,37,12.30
2015,06,27,03,38,12.30
2015,06,27,03,39,12.30
2015,06,27,03,40,12.30
2015,06,27,03,41,12.30
2015,06,27,03,42,12.30
2015,06,27,03,43,12.30
2015,06,27,03,44,12.30
2015,06,27,03,45,12.30
2015,06,27,03,46,12.30
2015,06,27,03,47,12.30
2015,06,27,03,48,12.30
2015,06,27,03,49,12.30
2015,06,27,03,50,12.30
2015,06,27,03,51,12.30
2015,06,27,03,52,12.30
2015,06,27,03,53,12.30
2015,06,27,03,54,12.30
2015,06,27,03,55,12.30
2015,06,27,03,56,12.30
2015,06,27,03,57,12.30
2015,06,27,03,58,12.30
2015,06,27,03,59,12.30
2015,06,27,04,00,12.30
2015,06,27,04,01,12.30
2015,06,27,04,02,12.30
2015,06,27,04,03,12.30
2015,06,27,04,04,12.30
2015,06,27,04,05,12.30
2015,06,27,04,06,12.30
2015,06,27,04,07,12.30
2015,06,27,04,08,12.30
2015,06,27,04,09,12.30
2015,06,27,04,10,12.30
2015,06,27,04,11,12.30
2015,06,27,04,12,12.30
2015,06,27,04,13,12.30
2015,06,27,04,14,12.30
2015,06,27,04,15,12.30
2015,06,27,04,16,12.30
2015,06,27,04,17,12.30
2015,06,27,04,18,12.30
2015,06,27,04,19,12.30
2015,06,27,04,20,12.30
2015,06,27,04,21,12.30
2015,06,27,04,22,12.30
2015,06,27,04,23,12.30
2015,06,27,04,24,12.30
2015,06,27,04,25,12.30
2015,06,27,04,26,12.30
2015,06,27,04,27,12.30
2015,06,27,04,28,12.30
2015,06,27,04,29,12.30
2015,06,27,04,30,12.30
2015,06,27,04,31,12.30
2015,06,27,04,32,12.30
2015,06,27,04,33,12.30
2015,06,27,04,34,12.30
2015,06,27,04,35,12.30
2015,06,27,04,36,12.30
2015,06,27,04,37,12.30
2015,06,27,04,38,12.30
2015,06,27,04,39,12.30
2015,06,27,04,40,12.30
2015,06,27,04,41,12.30
2015,06,27,04,42,12.30
2015,06,27,04,43,12.30
2015,06,27,04,44,12.30
2015,06,27,04,45,12.30
2015,06,27,04,46,12.10
2015,06,27,04,47,12.10
2015,06,27,04,48,12.10
2015,06,27,04,49,12.10
2015,06,27,04,50,12.10
2015,06,27,04,51,12.10
2015,06,27,04,52,12.10
2015,06,27,04,53,12.10
2015,06,27,04,54,12.10
2015,06,27,04,55,12.10
2015,06,27,04,56,12.10
2015,06,27,04,57,12.10
2015,06,27,04,58,12.10
2015,06,27,04,59,12.10
2015,06,27,05,00,12.10
2015,06,27,05,01,12.10
2015,06,27,05,02,12.10
2015,06,27,05,03,12.10
2015,06,27,05,04,12.10
2015,06,27,05,05,12.10
2015,06,27,05,06,12.10
2015,06,27,05,07,12.10
2015,06,27,05,08,12.10
2015,06,27,05,09,12.10
2015,06,27,05,10,12.10
2015,06,27,05,11,12.10
2015,06,27,05,12,12.10
2015,06,27,05,13,12.10
2015,06,27,05,14,12.10
2015,06,27,05,15,12.10
2015,06,27,05,16,11.90
2015,06,27,05,17,11.90
2015,06,27,05,18,11.90
2015,06,27,05,19,11.90
2015,06,27,05,20,11.90
2015,06,27,05,21,11.90
2015,06,27,05,22,11.90
2015,06,27,05,23,11.90
2015,06,27,05,24,11.90
2015,06,27,05,25,11.90
2015,06,27,05,26,11.90
2015,06,27,05,27,11.90
2015,06,27,05,28,11.90
2015,06,27,05,29,11.90
2015,06,27,05,30,11.90
2015,06,27,05,31,11.90
2015,06,27,05,32,11.90
2015,06,27,05,33,11.90
2015,06,27,05,34,11.90
2015,06,27,05,35,11.90
2015,06,27,05,36,11.90
2015,06,27,05,37,11.90
2015,06,27,05,38,11.90
2015,06,27,05,39,11.90
2015,06,27,05,40,11.90
2015,06,27,05,41,11.90
2015,06,27,05,42,11.90
2015,06,27,05,43,11.90
2015,06,27,05,44,11.90
2015,06,27,05,45,11.90
2015,06,27,05,46,12.10
2015,06,27,05,47,12.10
2015,06,27,05,48,12.10
2015,06,27,05,49,12.10
2015,06,27,05,50,12.10
2015,06,27,05,51,12.10
2015,06,27,05,52,12.10
2015,06,27,05,53,12.10
2015,06,27,05,54,12.10
2015,06,27,05,55,12.10
2015,06,27,05,56,12.10
2015,06,27,05,57,12.10
2015,06,27,05,58,12.10
2015,06,27,05,59,12.10
2015,06,27,06,00,12.10
2015,06,27,06,01,12.10
2015,06,27,06,02,12.10
2015,06,27,06,03,12.10
2015,06,27,06,04,12.10
2015,06,27,06,05,12.10
2015,06,27,06,06,12.10
2015,06,27,06,07,12.10
2015,06,27,06,08,12.10
2015,06,27,06,09,12.10
2015,06,27,06,10,12.10
2015,06,27,06,11,12.10
2015,06,27,06,12,12.10
2015,06,27,06,13,12.10
2015,06,27,06,14,12.10
2015,06,27,06,15,12.10
2015,06,27,06,16,12.10
2015,06,27,06,17,12.10
2015,06,27,06,18,12.10
2015,06,27,06,19,12.10
2015,06,27,06,20,12.10
2015,06,27,06,21,12.10
2015,06,27,06,22,12.10
2015,06,27,06,23,12.10
2015,06,27,06,24,12.10
2015,06,27,06,25,12.10
2015,06,27,06,26,12.10
2015,06,27,06,27,12.10
2015,06,27,06,28,12.10
2015,06,27,06,29,12.10
2015,06,27,06,30,12.10
2015,06,27,06,31,12.10
2015,06,27,06,32,12.10
2015,06,27,06,33,12.10
2015,06,27,06,34,12.10
2015,06,27,06,35,12.10
2015,06,27,06,36,12.10
2015,06,27,06,37,12.10
2015,06,27,06,38,12.10
2015,06,27,06,39,12.10
2015,06,27,06,40,12.10
2015,06,27,06,41,12.10
2015,06,27,06,42,12.10
2015,06,27,06,43,12.10
2015,06,27,06,44,12.10
2015,06,27,06,45,12.10
2015,06,27,06,46,12.20
2015,06,27,06,47,12.20
2015,06,27,06,48,12.20
2015,06,27,06,49,12.20
2015,06,27,06,50,12.20
2015,06,27,06,51,12.20
2015,06,27,06,52,12.20
2015,06,27,06,53,12.20
2015,06,27,06,54,12.20
2015,06,27,06,55,12.20
2015,06,27,06,56,12.20
2015,06,27,06,57,12.20
2015,06,27,06,58,12.20
2015,06,27,06,59,12.20
2015,06,27,07,00,12.20
2015,06,27,07,01,12.20
2015,06,27,07,02,12.20
2015,06,27,07,03,12.20
2015,06,27,07,04,12.20
2015,06,27,07,05,12.20
2015,06,27,07,06,12.20
2015,06,27,07,07,12.20
2015,06,27,07,08,12.20
2015,06,27,07,09,12.20
2015,06,27,07,10,12.20
2015,06,27,07,11,12.20
2015,06,27,07,12,12.20
2015,06,27,07,13,12.20
2015,06,27,07,14,12.20
2015,06,27,07,15,12.20
2015,06,27,07,16,12.20
2015,06,27,07,17,12.20
2015,06,27,07,18,12.20
2015,06,27,07,19,12.20
2015,06,27,07,20,12.20
2015,06,27,07,21,12.20
2015,06,27,07,22,12.20
2015,06,27,07,23,12.20
2015,06,27,07,24,12.20
2015,06,27,07,25,12.20
2015,06,27,07,26,12.20
2015,06,27,07,27,12.20
2015,06,27,07,28,12.20
2015,06,27,07,29,12.20
2015,06,27,07,30,12.20
2015,06,27,07,31,12.20
2015,06,27,07,32,12.20
2015,06,27,07,33,12.20
2015,06,27,07,34,12.20
2015,06,27,07,35,12.20
2015,06,27,07,36,12.20
2015,06,27,07,37,12.20
2015,06,27,07,38,12.20
2015,06,27,07,39,12.20
2015,06,27,07,40,12.20
2015,06,27,07,41,12.20
2015,06,27,07,42,12.20
2015,06,27,07,43,12.20
2015,06,27,07,44,12.20
2015,06,27,07,45,12.20
2015,06,27,07,46,12.40
2015,06,27,07,47,12.40
2015,06,27,07,48,12.40
2015,06,27,07,49,12.40
2015,06,27,07,50,12.40
2015,06,27,07,51,12.40
2015,06,27,07,52,12.40
2015,06,27,07,53,12.40
2015,06,27,07,54,12.40
2015,06,27,07,55,12.40
2015,06,27,07,56,12.40
2015,06,27,07,57,12.40
2015,06,27,07,58,12.40
2015,06,27,07,59,12.40
2015,06,27,08,00,12.40
2015,06,27,08,01,12.40
2015,06,27,08,02,12.40
2015,06,27,08,03,12.40
2015,06,27,08,04,12.40
2015,06,27,08,05,12.40
2015,06,27,08,06,12.40
2015,06,27,08,07,12.40
2015,06,27,08,08,12.40
2015,06,27,08,09,12.40
2015,06,27,08,10,12.40
2015,06,27,08,11,12.40
2015,06,27,08,12,12.40
2015,06,27,08,13,12.40
2015,06,27,08,14,12.40
2015,06,27,08,15,12.40
2015,06,27,08,16,12.60
2015,06,27,08,17,12.60
2015,06,27,08,18,12.60
2015,06,27,08,19,12.60
2015,06,27,08,20,12.60
2015,06,27,08,21,12.60
2015,06,27,08,22,12.60
2015,06,27,08,23,12.60
2015,06,27,08,24,12.60
2015,06,27,08,25,12.60
2015,06,27,08,26,12.60
2015,06,27,08,27,12.60
2015,06,27,08,28,12.60
2015,06,27,08,29,12.60
2015,06,27,08,30,12.60
2015,06,27,08,31,12.60
2015,06,27,08,32,12.60
2015,06,27,08,33,12.60
2015,06,27,08,34,12.60
2015,06,27,08,35,12.60
2015,06,27,08,36,12.60
2015,06,27,08,37,12.60
2015,06,27,08,38,12.60
2015,06,27,08,39,12.60
2015,06,27,08,40,12.60
2015,06,27,08,41,12.60
2015,06,27,08,42,12.60
2015,06,27,08,43,12.60
2015,06,27,08,44,12.60
2015,06,27,08,45,12.60
2015,06,27,08,46,12.70
2015,06,27,08,47,12.70
2015,06,27,08,48,12.70
2015,06,27,08,49,12.70
2015,06,27,08,50,12.70
2015,06,27,08,51,12.70
2015,06,27,08,52,12.70
2015,06,27,08,53,12.70
2015,06,27,08,54,12.70
2015,06,27,08,55,12.70
2015,06,27,08,56,12.70
2015,06,27,08,57,12.70
2015,06,27,08,58,12.70
2015,06,27,08,59,12.70
2015,06,27,09,00,12.70
2015,06,27,09,01,12.70
2015,06,27,09,02,12.70
2015,06,27,09,03,12.70
2015,06,27,09,04,12.70
2015,06,27,09,05,12.70
2015,06,27,09,06,12.70
2015,06,27,09,07,12.70
2015,06,27,09,08,12.70
2015,06,27,09,09,12.70
2015,06,27,09,10,12.70
2015,06,27,09,11,12.70
2015,06,27,09,12,12.70
2015,06,27,09,13,12.70
2015,06,27,09,14,12.70
2015,06,27,09,15,12.70
2015,06,27,09,16,13.70
2015,06,27,09,17,13.70
2015,06,27,09,18,13.70
2015,06,27,09,19,13.70
2015,06,27,09,20,13.70
2015,06,27,09,21,13.70
2015,06,27,09,22,13.70
2015,06,27,09,23,13.70
2015,06,27,09,24,13.70
2015,06,27,09,25,13.70
2015,06,27,09,26,13.70
2015,06,27,09,27,13.70
2015,06,27,09,28,13.70
2015,06,27,09,29,13.70
2015,06,27,09,30,13.70
2015,06,27,09,31,13.70
2015,06,27,09,32,13.70
2015,06,27,09,33,13.70
2015,06,27,09,34,13.70
2015,06,27,09,35,13.70
2015,06,27,09,36,13.70
2015,06,27,09,37,13.70
2015,06,27,09,38,13.70
2015,06,27,09,39,13.70
2015,06,27,09,40,13.70
2015,06,27,09,41,13.70
2015,06,27,09,42,13.70
2015,06,27,09,43,13.70
2015,06,27,09,44,13.70
2015,06,27,09,45,13.70
2015,06,27,09,46,13.60
2015,06,27,09,47,13.60
2015,06,27,09,48,13.60
2015,06,27,09,49,13.60
2015,06,27,09,50,13.60
2015,06,27,09,51,13.60
2015,06,27,09,52,13.60
2015,06,27,09,53,13.60
2015,06,27,09,54,13.60
2015,06,27,09,55,13.60
2015,06,27,09,56,13.60
2015,06,27,09,57,13.60
2015,06,27,09,58,13.60
2015,06,27,09,59,13.60
2015,06,27,10,00,13.60
2015,06,27,10,01,13.60
2015,06,27,10,02,13.60
2015,06,27,10,03,13.60
2015,06,27,10,04,13.60
2015,06,27,10,05,13.60
2015,06,27,10,06,13.60
2015,06,27,10,07,13.60
2015,06,27,10,08,13.60
2015,06,27,10,09,13.60
2015,06,27,10,10,13.60
2015,06,27,10,11,13.60
2015,06,27,10,12,13.60
2015,06,27,10,13,13.60
2015,06,27,10,14,13.60
2015,06,27,10,15,13.60
2015,06,27,10,16,14.10
2015,06,27,10,17,14.10
2015,06,27,10,18,14.10
2015,06,27,10,19,14.10
2015,06,27,10,20,14.10
2015,06,27,10,21,14.10
2015,06,27,10,22,14.10
2015,06,27,10,23,14.10
2015,06,27,10,24,14.10
2015,06,27,10,25,14.10
2015,06,27,10,26,14.10
2015,06,27,10,27,14.10
2015,06,27,10,28,14.10
2015,06,27,10,29,14.10
2015,06,27,10,30,14.10
2015,06,27,10,31,14.10
2015,06,27,10,32,14.10
2015,06,27,10,33,14.10
2015,06,27,10,34,14.10
2015,06,27,10,35,14.10
2015,06,27,10,36,14.10
2015,06,27,10,37,14.10
2015,06,27,10,38,14.10
2015,06,27,10,39,14.10
2015,06,27,10,40,14.10
2015,06,27,10,41,14.10
2015,06,27,10,42,14.10
2015,06,27,10,43,14.10
2015,06,27,10,44,14.10
2015,06,27,10,45,14.10
2015,06,27,10,46,15.30
2015,06,27,10,47,15.30
2015,06,27,10,48,15.30
2015,06,27,10,49,15.30
2015,06,27,10,50,15.30
2015,06,27,10,51,15.30
2015,06,27,10,52,15.30
2015,06,27,10,53,15.30
2015,06,27,10,54,15.30
2015,06,27,10,55,15.30
2015,06,27,10,56,15.30
2015,06,27,10,57,15.30
2015,06,27,10,58,15.30
2015,06,27,10,59,15.30
2015,06,27,11,00,15.30
2015,06,27,11,01,15.30
2015,06,27,11,02,15.30
2015,06,27,11,03,15.30
2015,06,27,11,04,15.30
2015,06,27,11,05,15.30
2015,06,27,11,06,15.30
2015,06,27,11,07,15.30
2015,06,27,11,08,15.30
2015,06,27,11,09,15.30
2015,06,27,11,10,15.30
2015,06,27,11,11,15.30
2015,06,27,11,12,15.30
2015,06,27,11,13,15.30
2015,06,27,11,14,15.30
2015,06,27,11,15,15.30
2015,06,27,11,16,15.30
2015,06,27,11,17,17.90
2015,06,27,11,18,17.90
2015,06,27,11,19,17.90
2015,06,27,11,20,17.90
2015,06,27,11,21,17.90
2015,06,27,11,22,17.90
2015,06,27,11,23,17.90
2015,06,27,11,24,17.90
2015,06,27,11,25,17.90
2015,06,27,11,26,17.90
2015,06,27,11,27,17.90
2015,06,27,11,28,17.90
2015,06,27,11,29,17.90
2015,06,27,11,30,17.90
2015,06,27,11,31,17.90
2015,06,27,11,32,17.90
2015,06,27,11,33,17.90
2015,06,27,11,34,17.90
2015,06,27,11,35,17.90
2015,06,27,11,36,17.90
2015,06,27,11,37,17.90
2015,06,27,11,38,17.90
2015,06,27,11,39,17.90
2015,06,27,11,40,17.90
2015,06,27,11,41,17.90
2015,06,27,11,42,17.90
2015,06,27,11,43,17.90
2015,06,27,11,44,17.90
2015,06,27,11,45,17.90
2015,06,27,11,46,19.20
2015,06,27,11,47,19.20
2015,06,27,11,48,19.20
2015,06,27,11,49,19.20
2015,06,27,11,50,19.20
2015,06,27,11,51,19.20
2015,06,27,11,52,19.20
2015,06,27,11,53,19.20
2015,06,27,11,54,19.20
2015,06,27,11,55,19.20
2015,06,27,11,56,19.20
2015,06,27,11,57,19.20
2015,06,27,11,58,19.20
2015,06,27,11,59,19.20
2015,06,27,12,00,19.20
2015,06,27,12,01,19.20
2015,06,27,12,02,19.20
2015,06,27,12,03,19.20
2015,06,27,12,04,19.20
2015,06,27,12,05,19.20
2015,06,27,12,06,19.20
2015,06,27,12,07,19.20
2015,06,27,12,08,19.20
2015,06,27,12,09,19.20
2015,06,27,12,10,19.20
2015,06,27,12,11,19.20
2015,06,27,12,12,19.20
2015,06,27,12,13,19.20
2015,06,27,12,14,19.20
2015,06,27,12,15,19.20
2015,06,27,12,16,19.10
2015,06,27,12,17,19.10
2015,06,27,12,18,19.10
2015,06,27,12,19,19.10
2015,06,27,12,20,19.10
2015,06,27,12,21,19.10
2015,06,27,12,22,19.10
2015,06,27,12,23,19.10
2015,06,27,12,24,19.10
2015,06,27,12,25,19.10
2015,06,27,12,26,19.10
2015,06,27,12,27,19.10
2015,06,27,12,28,19.10
2015,06,27,12,29,19.10
2015,06,27,12,30,19.10
2015,06,27,12,31,19.10
2015,06,27,12,32,19.10
2015,06,27,12,33,19.10
2015,06,27,12,34,19.10
2015,06,27,12,35,19.10
2015,06,27,12,36,19.10
2015,06,27,12,37,19.10
2015,06,27,12,38,19.10
2015,06,27,12,39,19.10
2015,06,27,12,40,19.10
2015,06,27,12,41,19.10
2015,06,27,12,42,19.10
2015,06,27,12,43,19.10
2015,06,27,12,44,19.10
2015,06,27,12,45,19.10
2015,06,27,12,46,17.90
2015,06,27,12,47,17.90
2015,06,27,12,48,17.90
2015,06,27,12,49,17.90
2015,06,27,12,50,17.90
2015,06,27,12,51,17.90
2015,06,27,12,52,17.90
2015,06,27,12,53,17.90
2015,06,27,12,54,17.90
2015,06,27,12,55,17.90
2015,06,27,12,56,17.90
2015,06,27,12,57,17.90
2015,06,27,12,58,17.90
2015,06,27,12,59,17.90
2015,06,27,13,00,17.90
2015,06,27,13,01,17.90
2015,06,27,13,02,17.90
2015,06,27,13,03,17.90
2015,06,27,13,04,17.90
2015,06,27,13,05,17.90
2015,06,27,13,06,17.90
2015,06,27,13,07,17.90
2015,06,27,13,08,17.90
2015,06,27,13,09,17.90
2015,06,27,13,10,17.90
2015,06,27,13,11,17.90
2015,06,27,13,12,17.90
2015,06,27,13,13,17.90
2015,06,27,13,14,17.90
2015,06,27,13,15,17.90
2015,06,27,13,16,17.80
2015,06,27,13,17,17.80
2015,06,27,13,18,17.80
2015,06,27,13,19,17.80
2015,06,27,13,20,17.80
2015,06,27,13,21,17.80
2015,06,27,13,22,17.80
2015,06,27,13,23,17.80
2015,06,27,13,24,17.80
2015,06,27,13,25,17.80
2015,06,27,13,26,17.80
2015,06,27,13,27,17.80
2015,06,27,13,28,17.80
2015,06,27,13,29,17.80
2015,06,27,13,30,17.80
2015,06,27,13,31,17.80
2015,06,27,13,32,17.80
2015,06,27,13,33,17.80
2015,06,27,13,34,17.80
2015,06,27,13,35,17.80
2015,06,27,13,36,17.80
2015,06,27,13,37,17.80
2015,06,27,13,38,17.80
2015,06,27,13,39,17.80
2015,06,27,13,40,17.80
2015,06,27,13,41,17.80
2015,06,27,13,42,17.80
2015,06,27,13,43,17.80
2015,06,27,13,44,17.80
2015,06,27,13,45,17.80
2015,06,27,13,46,19.60
2015,06,27,13,47,19.60
2015,06,27,13,48,19.60
2015,06,27,13,49,19.60
2015,06,27,13,50,19.60
2015,06,27,13,51,19.60
2015,06,27,13,52,19.60
2015,06,27,13,53,19.60
2015,06,27,13,54,19.60
2015,06,27,13,55,19.60
2015,06,27,13,56,19.60
2015,06,27,13,57,19.60
2015,06,27,13,58,19.60
2015,06,27,13,59,19.60
2015,06,27,14,00,19.60
2015,06,27,14,01,19.60
2015,06,27,14,02,19.60
2015,06,27,14,03,19.60
2015,06,27,14,04,19.60
2015,06,27,14,05,19.60
2015,06,27,14,06,19.60
2015,06,27,14,07,19.60
2015,06,27,14,08,19.60
2015,06,27,14,09,19.60
2015,06,27,14,10,19.60
2015,06,27,14,11,19.60
2015,06,27,14,12,19.60
2015,06,27,14,13,19.60
2015,06,27,14,14,19.60
2015,06,27,14,15,19.60
2015,06,27,14,16,21.30
2015,06,27,14,17,21.30
2015,06,27,14,18,21.30
2015,06,27,14,19,21.30
2015,06,27,14,20,21.30
2015,06,27,14,21,21.30
2015,06,27,14,22,21.30
2015,06,27,14,23,21.30
2015,06,27,14,24,21.30
2015,06,27,14,25,21.30
2015,06,27,14,26,21.30
2015,06,27,14,27,21.30
2015,06,27,14,28,21.30
2015,06,27,14,29,21.30
2015,06,27,14,30,21.30
2015,06,27,14,31,21.30
2015,06,27,14,32,21.30
2015,06,27,14,33,21.30
2015,06,27,14,34,21.30
2015,06,27,14,35,21.30
2015,06,27,14,36,21.30
2015,06,27,14,37,21.30
2015,06,27,14,38,21.30
2015,06,27,14,39,21.30
2015,06,27,14,40,21.30
2015,06,27,14,41,21.30
2015,06,27,14,42,21.30
2015,06,27,14,43,21.30
2015,06,27,14,44,21.30
2015,06,27,14,45,21.30
2015,06,27,14,46,21.80
2015,06,27,14,47,21.80
2015,06,27,14,48,21.80
2015,06,27,14,49,21.80
2015,06,27,14,50,21.80
2015,06,27,14,51,21.80
2015,06,27,14,52,21.80
2015,06,27,14,53,21.80
2015,06,27,14,54,21.80
2015,06,27,14,55,21.80
2015,06,27,14,56,21.80
2015,06,27,14,57,21.80
2015,06,27,14,58,21.80
2015,06,27,14,59,21.80
2015,06,27,15,00,21.80
2015,06,27,15,01,21.80
2015,06,27,15,02,21.80
2015,06,27,15,03,21.80
2015,06,27,15,04,21.80
2015,06,27,15,05,21.80
2015,06,27,15,06,21.80
2015,06,27,15,07,21.80
2015,06,27,15,08,21.80
2015,06,27,15,09,21.80
2015,06,27,15,10,21.80
2015,06,27,15,11,21.80
2015,06,27,15,12,21.80
2015,06,27,15,13,21.80
2015,06,27,15,14,21.80
2015,06,27,15,15,21.80
2015,06,27,15,16,23.00
2015,06,27,15,17,23.00
2015,06,27,15,18,23.00
2015,06,27,15,19,23.00
2015,06,27,15,20,23.00
2015,06,27,15,21,23.00
2015,06,27,15,22,23.00
2015,06,27,15,23,23.00
2015,06,27,15,24,23.00
2015,06,27,15,25,23.00
2015,06,27,15,26,23.00
2015,06,27,15,27,23.00
2015,06,27,15,28,23.00
2015,06,27,15,29,23.00
2015,06,27,15,30,23.00
2015,06,27,15,31,23.00
2015,06,27,15,32,23.00
2015,06,27,15,33,23.00
2015,06,27,15,34,23.00
2015,06,27,15,35,23.00
2015,06,27,15,36,23.00
2015,06,27,15,37,23.00
2015,06,27,15,38,23.00
2015,06,27,15,39,23.00
2015,06,27,15,40,23.00
2015,06,27,15,41,23.00
2015,06,27,15,42,23.00
2015,06,27,15,43,23.00
2015,06,27,15,44,23.00
2015,06,27,15,45,23.00
2015,06,27,15,46,18.40
2015,06,27,15,47,18.40
2015,06,27,15,48,18.40
2015,06,27,15,49,18.40
2015,06,27,15,50,18.40
2015,06,27,15,51,18.40
2015,06,27,15,52,18.40
2015,06,27,15,53,18.40
2015,06,27,15,54,18.40
2015,06,27,15,55,18.40
2015,06,27,15,56,18.40
2015,06,27,15,57,18.40
2015,06,27,15,58,18.40
2015,06,27,15,59,18.40
2015,06,27,16,00,18.40
2015,06,27,16,01,18.40
2015,06,27,16,02,18.40
2015,06,27,16,03,18.40
2015,06,27,16,04,18.40
2015,06,27,16,05,18.40
2015,06,27,16,06,18.40
2015,06,27,16,07,18.40
2015,06,27,16,08,18.40
2015,06,27,16,09,18.40
2015,06,27,16,10,18.40
2015,06,27,16,11,18.40
2015,06,27,16,12,18.40
2015,06,27,16,13,18.40
2015,06,27,16,14,18.40
2015,06,27,16,15,18.40
2015,06,27,16,16,17.40
2015,06,27,16,17,17.40
2015,06,27,16,18,17.40
2015,06,27,16,19,17.40
2015,06,27,16,20,17.40
2015,06,27,16,21,17.40
2015,06,27,16,22,17.40
2015,06,27,16,23,17.40
2015,06,27,16,24,17.40
2015,06,27,16,25,17.40
2015,06,27,16,26,17.40
2015,06,27,16,27,17.40
2015,06,27,16,28,17.40
2015,06,27,16,29,17.40
2015,06,27,16,30,17.40
2015,06,27,16,31,17.40
2015,06,27,16,32,17.40
2015,06,27,16,33,17.40
2015,06,27,16,34,17.40
2015,06,27,16,35,17.40
2015,06,27,16,36,17.40
2015,06,27,16,37,17.40
2015,06,27,16,38,17.40
2015,06,27,16,39,17.40
2015,06,27,16,40,17.40
2015,06,27,16,41,17.40
2015,06,27,16,42,17.40
2015,06,27,16,43,17.40
2015,06,27,16,44,17.40
2015,06,27,16,45,17.40
2015,06,27,16,46,17.20
2015,06,27,16,47,17.20
2015,06,27,16,48,17.20
2015,06,27,16,49,17.20
2015,06,27,16,50,17.20
2015,06,27,16,51,17.20
2015,06,27,16,52,17.20
2015,06,27,16,53,17.20
2015,06,27,16,54,17.20
2015,06,27,16,55,17.20
2015,06,27,16,56,17.20
2015,06,27,16,57,17.20
2015,06,27,16,58,17.20
2015,06,27,16,59,17.20
2015,06,27,17,00,17.20
2015,06,27,17,01,17.20
2015,06,27,17,02,17.20
2015,06,27,17,03,17.20
2015,06,27,17,04,17.20
2015,06,27,17,05,17.20
2015,06,27,17,06,17.20
2015,06,27,17,07,17.20
2015,06,27,17,08,17.20
2015,06,27,17,09,17.20
2015,06,27,17,10,17.20
2015,06,27,17,11,17.20
2015,06,27,17,12,17.20
2015,06,27,17,13,17.20
2015,06,27,17,14,17.20
2015,06,27,17,15,17.20
2015,06,27,17,16,16.70
2015,06,27,17,17,16.70
2015,06,27,17,18,16.70
2015,06,27,17,19,16.70
2015,06,27,17,20,16.70
2015,06,27,17,21,16.70
2015,06,27,17,22,16.70
2015,06,27,17,23,16.70
2015,06,27,17,24,16.70
2015,06,27,17,25,16.70
2015,06,27,17,26,16.70
2015,06,27,17,27,16.70
2015,06,27,17,28,16.70
2015,06,27,17,29,16.70
2015,06,27,17,30,16.70
2015,06,27,17,31,16.70
2015,06,27,17,32,16.70
2015,06,27,17,33,16.70
2015,06,27,17,34,16.70
2015,06,27,17,35,16.70
2015,06,27,17,36,16.70
2015,06,27,17,37,16.70
2015,06,27,17,38,16.70
2015,06,27,17,39,16.70
2015,06,27,17,40,16.70
2015,06,27,17,41,16.70
2015,06,27,17,42,16.70
2015,06,27,17,43,16.70
2015,06,27,17,44,16.70
2015,06,27,17,45,16.70
2015,06,27,17,46,16.30
2015,06,27,17,47,16.30
2015,06,27,17,48,16.30
2015,06,27,17,49,16.30
2015,06,27,17,50,16.30
2015,06,27,17,51,16.30
2015,06,27,17,52,16.30
2015,06,27,17,53,16.30
2015,06,27,17,54,16.30
2015,06,27,17,55,16.30
2015,06,27,17,56,16.30
2015,06,27,17,57,16.30
2015,06,27,17,58,16.30
2015,06,27,17,59,16.30
2015,06,27,18,00,16.30
2015,06,27,18,01,16.30
2015,06,27,18,02,16.30
2015,06,27,18,03,16.30
2015,06,27,18,04,16.30
2015,06,27,18,05,16.30
2015,06,27,18,06,16.30
2015,06,27,18,07,16.30
2015,06,27,18,08,16.30
2015,06,27,18,09,16.30
2015,06,27,18,10,16.30
2015,06,27,18,11,16.30
2015,06,27,18,12,16.30
2015,06,27,18,13,16.30
2015,06,27,18,14,16.30
2015,06,27,18,15,16.30
2015,06,27,18,16,15.80
2015,06,27,18,17,15.80
2015,06,27,18,18,15.80
2015,06,27,18,19,15.80
2015,06,27,18,20,15.80
2015,06,27,18,21,15.80
2015,06,27,18,22,15.80
2015,06,27,18,23,15.80
2015,06,27,18,24,15.80
2015,06,27,18,25,15.80
2015,06,27,18,26,15.80
2015,06,27,18,27,15.80
2015,06,27,18,28,15.80
2015,06,27,18,29,15.80
2015,06,27,18,30,15.80
2015,06,27,18,31,15.80
2015,06,27,18,32,15.80
2015,06,27,18,33,15.80
2015,06,27,18,34,15.80
2015,06,27,18,35,15.80